Weather History for Lee's Summit, MO

Change the Weather History Date:

Friday, February 15, 2013

  Actual Average (KMKC) Record (KMKC)
Temperature  
Mean Temperature 30 °F -  
Max Temperature 37 °F 44 °F 66 °F (2000)
Min Temperature 23 °F 28 °F 3 °F (2007)
Degree Days  
Heating Degree Days 35    
Moisture  
Dew Point 16 °F    
Average Humidity 60    
Maximum Humidity 86    
Minimum Humidity 30    
Precipitation  
Precipitation 0.01 in - - ()
Sea Level Pressure  
Sea Level Pressure 30.32 in    
Wind  
Wind Speed 11 mph (NNW)    
Max Wind Speed 18 mph    
Max Gust Speed 26 mph    
Visibility 8 miles    
Events Snow    
Averages and records for this station are not official NWS values.
T = Trace of Precipitation, MM = Missing Value Source: NWS Daily Summary

Daily Weather History Graph

Daily Weather History Graph

Search for Another Location

Airport:

Trip Planner

Search our weather history database for the weather conditions in past years. The results will help you decide how hot, cold, wet, or windy it might be!

Date:

Astronomy

Feb. 15, 2013 Rise Set
Actual Time 7:08 AM CST 5:55 PM CST
Civil Twilight 6:41 AM CST 6:22 PM CST
Nautical Twilight 6:09 AM CST 6:53 PM CST
Astronomical Twilight 5:39 AM CST 7:24 PM CST
Moon 9:48 AM CST (2/15) 11:53 PM CST (2/15)
Length of Visible Light 11h 41m
Length of Day
10h 46m
Waxing Crescent, 30% of the Moon is Illuminated
Feb 15
Waxing Crescent
Feb 17
First Quarter
Feb 25
Full
Mar 4
Last Quarter
Mar 11
New

Hourly Weather History & Observations

Time (CST) Temp. Windchill Dew Point Humidity Pressure Visibility Wind Dir Wind Speed Gust Speed Precip Events Conditions
12:53 AM 36.0 °F 28.5 °F 24.1 °F 62% 30.19 in 10.0 mi NW 10.4 mph - N/A   Overcast
1:53 AM 35.1 °F 25.9 °F 26.1 °F 70% 30.21 in 10.0 mi NW 13.8 mph - N/A   Overcast
2:53 AM 32.0 °F 20.5 °F 19.0 °F 59% 30.25 in 10.0 mi NNW 18.4 mph 26.5 mph 0.00 in   Overcast
3:06 AM 32.0 °F 20.8 °F 19.4 °F 60% 30.23 in 10.0 mi North 17.3 mph 25.3 mph N/A   Overcast
3:53 AM 30.9 °F 19.8 °F 15.1 °F 52% 30.27 in 10.0 mi NNW 16.1 mph - N/A   Overcast
4:53 AM 28.9 °F 17.7 °F 14.0 °F 54% 30.30 in 10.0 mi North 15.0 mph - N/A   Overcast
5:53 AM 25.0 °F 14.8 °F 12.9 °F 60% 30.33 in 10.0 mi NNW 10.4 mph - N/A   Clear
6:53 AM 23.0 °F 13.9 °F 12.9 °F 65% 30.35 in 10.0 mi NW 8.1 mph - N/A   Clear
7:53 AM 23.0 °F 13.9 °F 10.9 °F 60% 30.38 in 10.0 mi NW 8.1 mph - N/A   Clear
8:53 AM 25.0 °F 15.5 °F 12.0 °F 58% 30.40 in 10.0 mi NW 9.2 mph - N/A   Clear
9:53 AM 28.0 °F 20.8 °F 12.9 °F 53% 30.39 in 10.0 mi NW 6.9 mph - N/A   Clear
10:53 AM 30.0 °F 21.1 °F 10.0 °F 43% 30.39 in 10.0 mi NW 10.4 mph 17.3 mph N/A   Clear
11:53 AM 30.9 °F 22.2 °F 6.1 °F 35% 30.38 in 10.0 mi NW 10.4 mph - N/A   Clear
12:53 PM 34.0 °F 26.0 °F 5.0 °F 30% 30.35 in 10.0 mi West 10.4 mph 18.4 mph N/A   Clear
1:53 PM 35.1 °F 27.4 °F 8.1 °F 33% 30.33 in 10.0 mi WNW 10.4 mph 19.6 mph N/A   Clear
2:53 PM 35.1 °F 25.9 °F 10.9 °F 37% 30.32 in 10.0 mi NW 13.8 mph 25.3 mph N/A   Clear
3:53 PM 37.0 °F 27.7 °F 10.0 °F 33% 30.32 in 10.0 mi NNW 16.1 mph - N/A   Clear
4:53 PM 34.0 °F 25.0 °F 10.9 °F 38% 30.33 in 10.0 mi North 12.7 mph - N/A   Clear
5:53 PM 30.9 °F 24.3 °F 12.0 °F 46% 30.32 in 10.0 mi NNW 6.9 mph - N/A   Clear
6:53 PM 30.9 °F 26.2 °F 12.0 °F 46% 30.32 in 10.0 mi NNE 4.6 mph - N/A   Clear
7:53 PM 30.0 °F 25.2 °F 14.0 °F 51% 30.32 in 10.0 mi NE 4.6 mph - N/A   Overcast
8:53 PM 30.0 °F 23.2 °F 14.0 °F 51% 30.33 in 10.0 mi NNE 6.9 mph - N/A   Overcast
9:22 PM 28.4 °F 19.1 °F 17.6 °F 64% 30.31 in 2.5 mi North 10.4 mph - 0.00 in Snow Light Snow
9:30 PM 26.6 °F 16.8 °F 21.2 °F 80% 30.31 in 1.0 mi NNE 10.4 mph - 0.00 in Snow Light Snow
9:44 PM 26.6 °F 17.5 °F 21.2 °F 80% 30.30 in 1.5 mi NE 9.2 mph - 0.00 in Snow Light Snow
9:53 PM 26.1 °F 18.4 °F 21.9 °F 84% 30.34 in 1.8 mi NNE 6.9 mph - 0.00 in Snow Light Snow
10:22 PM 26.6 °F 21.2 °F 21.2 °F 80% 30.30 in 2.5 mi North 4.6 mph - 0.00 in Snow Light Snow
10:53 PM 26.1 °F 20.5 °F 21.9 °F 84% 30.33 in 1.0 mi NE 4.6 mph - 0.00 in Snow Light Snow
11:04 PM 26.6 °F 20.0 °F 23.0 °F 86% 30.29 in 1.2 mi NNE 5.8 mph - 0.01 in Snow Light Snow
11:15 PM 26.6 °F 20.0 °F 21.2 °F 80% 30.29 in 3.0 mi North 5.8 mph - 0.01 in Snow Light Snow
11:25 PM 24.8 °F 19.1 °F 21.2 °F 86% 30.29 in 4.0 mi NE 4.6 mph - 0.01 in Snow Light Snow
11:53 PM 25.0 °F - 21.0 °F 85% 30.33 in 9.0 mi Calm Calm - 0.01 in   Overcast